Weather History for Elkins, WV

Change the Weather History Date:

Tuesday, February 12, 2013

  Actual Average Record
Temperature  
Mean Temperature 38 °F 32 °F  
Max Temperature 49 °F 42 °F 68 °F (1984)
Min Temperature 26 °F 21 °F -11 °F (1964)
Degree Days  
Heating Degree Days 27 33  
Month to date heating degree days 433 412  
Since 1 July heating degree days 3686 3813  
Cooling Degree Days 0 0  
Month to date cooling degree days 0 0  
Year to date cooling degree days 0 0  
Moisture  
Dew Point 21 °F    
Average Humidity 53    
Maximum Humidity 75    
Minimum Humidity 31    
Precipitation  
Precipitation 0.00 in 0.11 in 1.32 in (1916)
Month to date precipitation 0.96 1.28  
Year to date precipitation 5.47 4.51  
Snow  
Snow 0.00 in - - ()
Month to date snowfall 11.4  
Since 1 September snowfall 49.5  
Snow Depth 0.00 in    
Sea Level Pressure  
Sea Level Pressure 30.03 in    
Wind  
Wind Speed 8 mph (West)    
Max Wind Speed 23 mph    
Max Gust Speed 43 mph    
Visibility 10 miles    
Events      
T = Trace of Precipitation, MM = Missing Value Source: NWS Daily Summary

Daily Weather History Graph

Daily Weather History Graph

Search for Another Location

Airport:

Trip Planner

Search our weather history database for the weather conditions in past years. The results will help you decide how hot, cold, wet, or windy it might be!

Date:

Astronomy

Feb. 12, 2013 Rise Set
Actual Time 7:13 AM EST 5:53 PM EST
Civil Twilight 6:46 AM EST 6:21 PM EST
Nautical Twilight 6:15 AM EST 6:52 PM EST
Astronomical Twilight 5:44 AM EST 7:23 PM EST
Moon 8:12 AM EST (2/12) 8:50 PM EST (2/12)
Length of Visible Light 11h 34m
Length of Day
10h 39m
Waxing Crescent, 7% of the Moon is Illuminated
Feb 12
Waxing Crescent
Feb 17
First Quarter
Feb 25
Full
Mar 4
Last Quarter
Mar 11
New

Hourly Weather History & Observations

Time (EST) Temp. Windchill Dew Point Humidity Pressure Visibility Wind Dir Wind Speed Gust Speed Precip Events Conditions
12:51 AM 41.0 °F 32.8 °F 24.1 °F 51% 29.97 in 10.0 mi West 16.1 mph 25.3 mph N/A   Overcast
1:51 AM 39.9 °F 32.5 °F 23.0 °F 51% 29.99 in 10.0 mi West 12.7 mph 25.3 mph N/A   Overcast
2:51 AM 39.0 °F 31.8 °F 21.9 °F 50% 30.00 in 10.0 mi West 11.5 mph 21.9 mph N/A   Mostly Cloudy
3:51 AM 37.9 °F 29.6 °F 21.9 °F 53% 30.02 in 10.0 mi West 13.8 mph 24.2 mph N/A   Overcast
4:51 AM 37.0 °F 28.1 °F 21.9 °F 54% 30.04 in 10.0 mi West 15.0 mph 24.2 mph N/A   Mostly Cloudy
5:51 AM 36.0 °F 29.6 °F 21.9 °F 57% 30.06 in 10.0 mi WSW 8.1 mph 18.4 mph N/A   Partly Cloudy
6:51 AM 35.1 °F 26.4 °F 23.0 °F 61% 30.08 in 10.0 mi WSW 12.7 mph 20.7 mph N/A   Clear
7:51 AM 34.0 °F 28.0 °F 21.9 °F 61% 30.09 in 10.0 mi WSW 6.9 mph 16.1 mph N/A   Clear
8:51 AM 35.1 °F 26.9 °F 21.9 °F 59% 30.12 in 10.0 mi West 11.5 mph 19.6 mph N/A   Clear
9:51 AM 37.0 °F 29.8 °F 21.9 °F 54% 30.12 in 10.0 mi WSW 10.4 mph 19.6 mph N/A   Clear
10:51 AM 39.9 °F 33.4 °F 21.0 °F 47% 30.11 in 10.0 mi SW 10.4 mph 18.4 mph N/A   Clear
11:51 AM 44.1 °F 39.0 °F 19.9 °F 38% 30.08 in 10.0 mi West 9.2 mph 19.6 mph N/A   Clear
12:51 PM 46.0 °F 41.9 °F 19.9 °F 35% 30.02 in 10.0 mi WNW 8.1 mph 16.1 mph N/A   Clear
1:51 PM 46.9 °F - 19.0 °F 33% 29.94 in 10.0 mi West 8.1 mph - N/A   Clear
2:51 PM 48.9 °F - 21.0 °F 33% 30.01 in 10.0 mi West 12.7 mph 18.4 mph N/A   Clear
3:51 PM 48.9 °F - 19.0 °F 31% 30.01 in 10.0 mi WSW 11.5 mph 18.4 mph N/A   Clear
4:51 PM 46.0 °F 42.5 °F 18.0 °F 33% 30.01 in 10.0 mi WSW 6.9 mph - N/A   Clear
5:51 PM 44.1 °F - 17.1 °F 34% 30.03 in 10.0 mi Calm Calm - N/A   Clear
6:51 PM 39.9 °F - 18.0 °F 41% 30.02 in 10.0 mi Calm Calm - N/A   Clear
7:51 PM 32.0 °F - 19.9 °F 61% 30.00 in 10.0 mi Calm Calm - N/A   Clear
8:51 PM 28.9 °F - 21.9 °F 75% 30.01 in 10.0 mi Calm Calm - N/A   Clear
9:51 PM 30.0 °F - 23.0 °F 75% 30.00 in 10.0 mi Calm Calm - N/A   Clear
10:51 PM 28.0 °F - 21.9 °F 78% 29.99 in 10.0 mi Calm Calm - N/A   Clear
11:51 PM 26.1 °F - 21.0 °F 81% 29.99 in 10.0 mi Calm Calm - N/A   Clear